Satellite: FENGYUN 1D
Catalog number: 27431
Epoch time:      103069.19142215
Element set:     233 
Inclination:       98.7639 deg
RA of node:       117.6426 deg
Eccentricity:    0.0016307
Arg of perigee:    67.6665 deg
Mean anomaly:     292.6232 deg
Mean motion:   14.09178933 rev/day
Decay rate:   -3.0999E-007 rev/day^2
Epoch rev:            4213
Checksum:              318

Satellite: NOAA 17
Catalog numbe27453
Epoch time:      103069.53050485
Element set:     332 
Inclination:       98.7519 deg
RA of node:       140.6334 deg
Eccentricity:    0.0011162
Arg of perigee:   302.2344 deg
Mean anomaly:      57.7753 deg
Mean motion:   14.23306179 rev/day
Decay rate:    3.3199E-006 rev/day^2
Epoch rev:            3680
Checksum:              300

Satellite: HOT BIRD 6
Catalog number: 27499
Epoch time:      103054.87288413
Element set:     70 
Inclination:        0.0150 deg
RA of node:       173.7812 deg
Eccentricity:    0.0009015
Arg of perigee:   197.5701 deg
Mean anomaly:     109.1063 deg
Mean motion:    1.00270140 rev/day
Decay rate:    7.5000E-007 rev/day^2
Epoch rev:             188
Checksum:              258

Satellite: RUBIN 2
Catalog number: 27605
Epoch time:      103069.22241483
Element set:     78 
Inclination:       64.5509 deg
RA of node:       137.5567 deg
Eccentricity:    0.0035459
Arg of perigee:   104.8140 deg
Mean anomaly:     255.6881 deg
Mean motion:   14.71405105 rev/day
Decay rate:    1.0050E-005 rev/day^2
Epoch rev:            1170
Checksum:              279


Read previous mail | Read next mail


 15.09.2026 10:58:08lGo back Go up